Time,TemperatureF,DewpointF,PressureIn,WindDirection,WindDirectionDegrees,WindSpeedMPH,WindSpeedGustMPH,Humidity,HourlyPrecipIn,Conditions,Clouds,dailyrainin,SoftwareType,DateUTC
2013-03-27 00:00:00,59.0,39.0,-100.00,SE,138,15.0,-999.0,47,0.00,,,-99.99,,2013-03-27 05:00:00,
2013-03-27 00:23:00,59.0,39.0,-100.00,SE,138,15.0,-999.0,47,0.00,,,-99.99,,2013-03-27 05:23:00,
2013-03-27 00:33:00,59.0,39.0,-100.00,SE,138,15.0,-999.0,47,0.00,,,-99.99,,2013-03-27 05:33:00,
2013-03-27 00:42:00,59.0,39.0,-100.00,SE,138,15.0,-999.0,47,0.00,,,-99.99,,2013-03-27 05:42:00,
2013-03-27 00:52:00,59.0,39.0,-100.00,SE,138,15.0,-999.0,47,0.00,,,-99.99,,2013-03-27 05:52:00,
2013-03-27 01:00:00,59.0,40.0,-100.00,SE,135,14.0,-999.0,49,0.00,,,-99.99,,2013-03-27 06:00:00,
2013-03-27 01:22:00,59.0,40.0,-100.00,SE,135,14.0,-999.0,49,0.00,,,-99.99,,2013-03-27 06:22:00,
2013-03-27 01:32:00,59.0,40.0,-100.00,SE,135,14.0,-999.0,49,0.00,,,-99.99,,2013-03-27 06:32:00,
2013-03-27 01:42:00,59.0,40.0,-100.00,SE,135,14.0,-999.0,49,0.00,,,-99.99,,2013-03-27 06:42:00,
2013-03-27 01:53:00,59.0,40.0,-100.00,SE,135,14.0,-999.0,49,0.00,,,-99.99,,2013-03-27 06:53:00,
2013-03-27 02:00:00,59.0,40.0,-100.00,SE,135,14.0,-999.0,49,0.00,,,-99.99,,2013-03-27 07:00:00,
2013-03-27 02:22:00,59.0,40.0,-100.00,SE,135,14.0,-999.0,49,0.00,,,-99.99,,2013-03-27 07:22:00,
2013-03-27 02:32:00,59.0,40.0,-100.00,SE,135,14.0,-999.0,49,0.00,,,-99.99,,2013-03-27 07:32:00,
2013-03-27 02:42:00,59.0,40.0,-100.00,SE,135,14.0,-999.0,49,0.00,,,-99.99,,2013-03-27 07:42:00,
2013-03-27 02:53:00,59.0,40.0,-100.00,SE,135,14.0,-999.0,49,0.00,,,-99.99,,2013-03-27 07:53:00,
2013-03-27 03:00:00,59.0,42.0,-100.00,SE,135,14.0,-999.0,53,0.00,,,-99.99,,2013-03-27 08:00:00,
2013-03-27 03:22:00,59.0,42.0,-100.00,SE,135,14.0,-999.0,53,0.00,,,-99.99,,2013-03-27 08:22:00,
2013-03-27 03:32:00,59.0,42.0,-100.00,SE,135,14.0,-999.0,53,0.00,,,-99.99,,2013-03-27 08:32:00,
2013-03-27 03:43:00,59.0,42.0,-100.00,SE,135,14.0,-999.0,53,0.00,,,-99.99,,2013-03-27 08:43:00,
2013-03-27 03:52:00,59.0,42.0,-100.00,SE,135,14.0,-999.0,53,0.00,,,-99.99,,2013-03-27 08:52:00,
2013-03-27 04:00:00,59.0,43.0,-100.00,SE,128,14.0,-999.0,54,0.00,,,-99.99,,2013-03-27 09:00:00,
2013-03-27 04:22:00,59.0,43.0,-100.00,SE,128,14.0,-999.0,54,0.00,,,-99.99,,2013-03-27 09:22:00,
2013-03-27 04:32:00,59.0,43.0,-100.00,SE,128,14.0,-999.0,54,0.00,,,-99.99,,2013-03-27 09:32:00,
2013-03-27 04:42:00,59.0,43.0,-100.00,SE,128,14.0,-999.0,54,0.00,,,-99.99,,2013-03-27 09:42:00,
2013-03-27 04:52:00,59.0,43.0,-100.00,SE,128,14.0,-999.0,54,0.00,,,-99.99,,2013-03-27 09:52:00,
2013-03-27 05:00:00,59.0,45.0,-100.00,SE,130,14.0,-999.0,58,0.00,,,-99.99,,2013-03-27 10:00:00,
2013-03-27 05:23:00,59.0,45.0,-100.00,SE,130,14.0,-999.0,58,0.00,,,-99.99,,2013-03-27 10:23:00,
2013-03-27 05:32:00,59.0,45.0,-100.00,SE,130,14.0,-999.0,58,0.00,,,-99.99,,2013-03-27 10:32:00,
2013-03-27 05:42:00,59.0,45.0,-100.00,SE,130,14.0,-999.0,58,0.00,,,-99.99,,2013-03-27 10:42:00,
2013-03-27 05:53:00,59.0,45.0,-100.00,SE,130,14.0,-999.0,58,0.00,,,-99.99,,2013-03-27 10:53:00,
2013-03-27 06:00:00,59.0,46.0,-100.00,SE,125,15.0,-999.0,61,0.00,,,-99.99,,2013-03-27 11:00:00,
2013-03-27 06:22:00,59.0,46.0,-100.00,SE,125,15.0,-999.0,61,0.00,,,-99.99,,2013-03-27 11:22:00,
2013-03-27 06:32:00,59.0,46.0,-100.00,SE,125,15.0,-999.0,61,0.00,,,-99.99,,2013-03-27 11:32:00,
2013-03-27 06:42:00,59.0,46.0,-100.00,SE,125,15.0,-999.0,61,0.00,,,-99.99,,2013-03-27 11:42:00,
2013-03-27 06:53:00,59.0,46.0,-100.00,SE,125,15.0,-999.0,61,0.00,,,-99.99,,2013-03-27 11:53:00,
2013-03-27 07:00:00,59.0,46.0,-100.00,ESE,120,14.0,-999.0,61,0.00,,,-99.99,,2013-03-27 12:00:00,
2013-03-27 07:23:00,59.0,46.0,-100.00,ESE,120,14.0,-999.0,61,0.00,,,-99.99,,2013-03-27 12:23:00,
2013-03-27 07:32:00,59.0,46.0,-100.00,ESE,120,14.0,-999.0,61,0.00,,,-99.99,,2013-03-27 12:32:00,
2013-03-27 07:43:00,59.0,46.0,-100.00,ESE,120,14.0,-999.0,61,0.00,,,-99.99,,2013-03-27 12:43:00,
2013-03-27 07:52:00,59.0,46.0,-100.00,ESE,120,14.0,-999.0,61,0.00,,,-99.99,,2013-03-27 12:52:00,
2013-03-27 08:00:00,60.0,48.0,-100.00,ESE,120,13.0,-999.0,64,0.00,,,-99.99,,2013-03-27 13:00:00,
2013-03-27 08:22:00,60.0,48.0,-100.00,ESE,120,13.0,-999.0,64,0.00,,,-99.99,,2013-03-27 13:22:00,
2013-03-27 08:32:00,60.0,48.0,-100.00,ESE,120,13.0,-999.0,64,0.00,,,-99.99,,2013-03-27 13:32:00,
2013-03-27 08:42:00,60.0,48.0,-100.00,ESE,120,13.0,-999.0,64,0.00,,,-99.99,,2013-03-27 13:42:00,
2013-03-27 08:53:00,60.0,48.0,-100.00,ESE,120,13.0,-999.0,64,0.00,,,-99.99,,2013-03-27 13:53:00,
2013-03-27 09:00:00,61.0,49.0,-100.00,SE,129,15.0,-999.0,64,0.00,,,-99.99,,2013-03-27 14:00:00,
2013-03-27 09:22:00,61.0,49.0,-100.00,SE,129,15.0,-999.0,64,0.00,,,-99.99,,2013-03-27 14:22:00,
2013-03-27 09:32:00,61.0,49.0,-100.00,SE,129,15.0,-999.0,64,0.00,,,-99.99,,2013-03-27 14:32:00,
2013-03-27 09:42:00,61.0,49.0,-100.00,SE,129,15.0,-999.0,64,0.00,,,-99.99,,2013-03-27 14:42:00,
2013-03-27 09:52:00,61.0,49.0,-100.00,SE,129,15.0,-999.0,64,0.00,,,-99.99,,2013-03-27 14:52:00,
2013-03-27 10:00:00,61.0,49.0,-100.00,ESE,123,16.0,-999.0,64,0.00,,,-99.99,,2013-03-27 15:00:00,
2013-03-27 10:22:00,61.0,49.0,-100.00,ESE,123,16.0,-999.0,64,0.00,,,-99.99,,2013-03-27 15:22:00,
2013-03-27 10:33:00,61.0,49.0,-100.00,ESE,123,16.0,-999.0,64,0.00,,,-99.99,,2013-03-27 15:33:00,
2013-03-27 10:42:00,61.0,49.0,-100.00,ESE,123,16.0,-999.0,64,0.00,,,-99.99,,2013-03-27 15:42:00,
2013-03-27 10:52:00,61.0,49.0,-100.00,ESE,123,16.0,-999.0,64,0.00,,,-99.99,,2013-03-27 15:52:00,
2013-03-27 11:00:00,61.0,49.0,-100.00,ESE,121,16.0,-999.0,63,0.00,,,-99.99,,2013-03-27 16:00:00,
2013-03-27 11:22:00,61.0,49.0,-100.00,ESE,121,16.0,-999.0,63,0.00,,,-99.99,,2013-03-27 16:22:00,
2013-03-27 11:32:00,61.0,49.0,-100.00,ESE,121,16.0,-999.0,63,0.00,,,-99.99,,2013-03-27 16:32:00,
2013-03-27 11:42:00,61.0,49.0,-100.00,ESE,121,16.0,-999.0,63,0.00,,,-99.99,,2013-03-27 16:42:00,
2013-03-27 11:52:00,61.0,49.0,-100.00,ESE,121,16.0,-999.0,63,0.00,,,-99.99,,2013-03-27 16:52:00,
2013-03-27 12:00:00,62.0,48.0,-100.00,ESE,120,16.0,-999.0,61,0.00,,,-99.99,,2013-03-27 17:00:00,
2013-03-27 12:22:00,62.0,48.0,-100.00,ESE,120,16.0,-999.0,61,0.00,,,-99.99,,2013-03-27 17:22:00,
2013-03-27 12:32:00,62.0,48.0,-100.00,ESE,120,16.0,-999.0,61,0.00,,,-99.99,,2013-03-27 17:32:00,
2013-03-27 12:44:00,62.0,48.0,-100.00,ESE,120,16.0,-999.0,61,0.00,,,-99.99,,2013-03-27 17:44:00,
2013-03-27 12:52:00,62.0,48.0,-100.00,ESE,120,16.0,-999.0,61,0.00,,,-99.99,,2013-03-27 17:52:00,
2013-03-27 13:00:00,62.0,49.0,-100.00,ESE,122,16.0,-999.0,62,0.00,,,-99.99,,2013-03-27 18:00:00,
2013-03-27 13:22:00,62.0,49.0,-100.00,ESE,122,16.0,-999.0,62,0.00,,,-99.99,,2013-03-27 18:22:00,
2013-03-27 13:32:00,62.0,49.0,-100.00,ESE,122,16.0,-999.0,62,0.00,,,-99.99,,2013-03-27 18:32:00,
2013-03-27 13:42:00,62.0,49.0,-100.00,ESE,122,16.0,-999.0,62,0.00,,,-99.99,,2013-03-27 18:42:00,
2013-03-27 13:53:00,62.0,49.0,-100.00,ESE,122,16.0,-999.0,62,0.00,,,-99.99,,2013-03-27 18:53:00,
2013-03-27 14:00:00,62.0,50.0,-100.00,ESE,119,15.0,-999.0,64,0.00,,,-99.99,,2013-03-27 19:00:00,
2013-03-27 14:22:00,62.0,50.0,-100.00,ESE,119,15.0,-999.0,64,0.00,,,-99.99,,2013-03-27 19:22:00,
2013-03-27 14:32:00,62.0,50.0,-100.00,ESE,119,15.0,-999.0,64,0.00,,,-99.99,,2013-03-27 19:32:00,
2013-03-27 14:42:00,62.0,50.0,-100.00,ESE,119,15.0,-999.0,64,0.00,,,-99.99,,2013-03-27 19:42:00,
2013-03-27 14:52:00,62.0,50.0,-100.00,ESE,119,15.0,-999.0,64,0.00,,,-99.99,,2013-03-27 19:52:00,
2013-03-27 15:00:00,62.0,51.0,-100.00,ESE,117,14.0,-999.0,67,0.00,,,-99.99,,2013-03-27 20:00:00,
2013-03-27 15:22:00,62.0,51.0,-100.00,ESE,117,14.0,-999.0,67,0.00,,,-99.99,,2013-03-27 20:22:00,
2013-03-27 15:32:00,62.0,51.0,-100.00,ESE,117,14.0,-999.0,67,0.00,,,-99.99,,2013-03-27 20:32:00,
2013-03-27 15:42:00,62.0,51.0,-100.00,ESE,117,14.0,-999.0,67,0.00,,,-99.99,,2013-03-27 20:42:00,
2013-03-27 15:52:00,62.0,51.0,-100.00,ESE,117,14.0,-999.0,67,0.00,,,-99.99,,2013-03-27 20:52:00,
2013-03-27 16:00:00,63.0,52.0,-100.00,ESE,123,15.0,-999.0,68,0.00,,,-99.99,,2013-03-27 21:00:00,
2013-03-27 16:22:00,63.0,52.0,-100.00,ESE,123,15.0,-999.0,68,0.00,,,-99.99,,2013-03-27 21:22:00,
2013-03-27 16:32:00,63.0,52.0,-100.00,ESE,123,15.0,-999.0,68,0.00,,,-99.99,,2013-03-27 21:32:00,
2013-03-27 16:43:00,63.0,52.0,-100.00,ESE,123,15.0,-999.0,68,0.00,,,-99.99,,2013-03-27 21:43:00,
2013-03-27 16:52:00,63.0,52.0,-100.00,ESE,123,15.0,-999.0,68,0.00,,,-99.99,,2013-03-27 21:52:00,
2013-03-27 17:00:00,63.0,53.0,-100.00,ESE,122,15.0,-999.0,71,0.00,,,-99.99,,2013-03-27 22:00:00,
2013-03-27 17:23:00,63.0,53.0,-100.00,ESE,122,15.0,-999.0,71,0.00,,,-99.99,,2013-03-27 22:23:00,
2013-03-27 17:33:00,63.0,53.0,-100.00,ESE,122,15.0,-999.0,71,0.00,,,-99.99,,2013-03-27 22:33:00,
2013-03-27 17:42:00,63.0,53.0,-100.00,ESE,122,15.0,-999.0,71,0.00,,,-99.99,,2013-03-27 22:42:00,
2013-03-27 17:53:00,63.0,53.0,-100.00,ESE,122,15.0,-999.0,71,0.00,,,-99.99,,2013-03-27 22:53:00,
2013-03-27 18:00:00,63.0,54.0,-100.00,SE,136,16.0,-999.0,72,0.00,,,-99.99,,2013-03-27 23:00:00,
2013-03-27 18:22:00,63.0,54.0,-100.00,SE,136,16.0,-999.0,72,0.00,,,-99.99,,2013-03-27 23:22:00,
2013-03-27 18:32:00,63.0,54.0,-100.00,SE,136,16.0,-999.0,72,0.00,,,-99.99,,2013-03-27 23:32:00,
2013-03-27 18:42:00,63.0,54.0,-100.00,SE,136,16.0,-999.0,72,0.00,,,-99.99,,2013-03-27 23:42:00,
2013-03-27 18:52:00,63.0,54.0,-100.00,SE,136,16.0,-999.0,72,0.00,,,-99.99,,2013-03-27 23:52:00,
2013-03-27 19:00:00,63.0,55.0,-100.00,SE,136,15.0,-999.0,73,0.00,,,-99.99,,2013-03-28 00:00:00,
2013-03-27 19:22:00,63.0,55.0,-100.00,SE,136,15.0,-999.0,73,0.00,,,-99.99,,2013-03-28 00:22:00,
2013-03-27 19:32:00,63.0,55.0,-100.00,SE,136,15.0,-999.0,73,0.00,,,-99.99,,2013-03-28 00:32:00,
2013-03-27 19:43:00,63.0,55.0,-100.00,SE,136,15.0,-999.0,73,0.00,,,-99.99,,2013-03-28 00:43:00,
2013-03-27 19:52:00,63.0,55.0,-100.00,SE,136,15.0,-999.0,73,0.00,,,-99.99,,2013-03-28 00:52:00,
2013-03-27 20:00:00,63.0,56.0,-100.00,SE,132,13.0,-999.0,76,0.00,,,-99.99,,2013-03-28 01:00:00,
2013-03-27 20:22:00,63.0,56.0,-100.00,SE,132,13.0,-999.0,76,0.00,,,-99.99,,2013-03-28 01:22:00,
2013-03-27 20:32:00,63.0,56.0,-100.00,SE,132,13.0,-999.0,76,0.00,,,-99.99,,2013-03-28 01:32:00,
2013-03-27 20:42:00,63.0,56.0,-100.00,SE,132,13.0,-999.0,76,0.00,,,-99.99,,2013-03-28 01:42:00,
2013-03-27 20:53:00,63.0,56.0,-100.00,SE,132,13.0,-999.0,76,0.00,,,-99.99,,2013-03-28 01:53:00,
2013-03-27 21:00:00,63.0,57.0,-100.00,SE,138,12.0,-999.0,79,0.00,,,-99.99,,2013-03-28 02:00:00,
2013-03-27 21:22:00,63.0,57.0,-100.00,SE,138,12.0,-999.0,79,0.00,,,-99.99,,2013-03-28 02:22:00,
2013-03-27 21:32:00,63.0,57.0,-100.00,SE,138,12.0,-999.0,79,0.00,,,-99.99,,2013-03-28 02:32:00,
2013-03-27 21:42:00,63.0,57.0,-100.00,SE,138,12.0,-999.0,79,0.00,,,-99.99,,2013-03-28 02:42:00,
2013-03-27 21:52:00,63.0,57.0,-100.00,SE,138,12.0,-999.0,79,0.00,,,-99.99,,2013-03-28 02:52:00,
2013-03-27 22:00:00,63.0,58.0,-100.00,SSE,148,9.0,-999.0,82,0.00,,,-99.99,,2013-03-28 03:00:00,
2013-03-27 22:22:00,63.0,58.0,-100.00,SSE,148,9.0,-999.0,82,0.00,,,-99.99,,2013-03-28 03:22:00,
2013-03-27 22:33:00,63.0,58.0,-100.00,SSE,148,9.0,-999.0,82,0.00,,,-99.99,,2013-03-28 03:33:00,
2013-03-27 22:43:00,63.0,58.0,-100.00,SSE,148,9.0,-999.0,82,0.00,,,-99.99,,2013-03-28 03:43:00,
2013-03-27 22:53:00,63.0,58.0,-100.00,SSE,148,9.0,-999.0,82,0.00,,,-99.99,,2013-03-28 03:53:00,
2013-03-27 23:00:00,64.0,59.0,-100.00,SE,141,10.0,-999.0,84,0.00,,,-99.99,,2013-03-28 04:00:00,
2013-03-27 23:23:00,64.0,59.0,-100.00,SE,141,10.0,-999.0,84,0.00,,,-99.99,,2013-03-28 04:23:00,
2013-03-27 23:32:00,64.0,59.0,-100.00,SE,141,10.0,-999.0,84,0.00,,,-99.99,,2013-03-28 04:32:00,
2013-03-27 23:42:00,64.0,59.0,-100.00,SE,141,10.0,-999.0,84,0.00,,,-99.99,,2013-03-28 04:42:00,
2013-03-27 23:52:00,64.0,59.0,-100.00,SE,141,10.0,-999.0,84,0.00,,,-99.99,,2013-03-28 04:52:00,